TimeAST,TemperatureF,Dew PointF,Humidity,Sea Level PressureIn,VisibilityMPH,Wind Direction,Wind SpeedMPH,Gust SpeedMPH,PrecipitationIn,Events,Conditions,WindDirDegrees,DateUTC
12:55 AM,77.9,67.5,70,29.90,6.2,NW,6.9,-,N/A,,Clear,320,2012-10-14 21:55:00
1:55 AM,77.5,68.0,72,29.89,6.2,NNW,6.9,-,N/A,,Clear,330,2012-10-14 22:55:00
2:55 AM,75.7,67.5,75,29.89,6.2,WNW,5.8,-,N/A,,Clear,290,2012-10-14 23:55:00
3:55 AM,74.3,67.1,78,29.89,6.2,West,5.8,-,N/A,,Clear,280,2012-10-15 00:55:00
4:55 AM,73.4,67.8,83,29.90,6.2,West,6.9,-,N/A,,Clear,260,2012-10-15 01:55:00
5:55 AM,72.5,68.2,86,29.91,6.2,West,6.9,-,N/A,,Clear,270,2012-10-15 02:55:00
6:55 AM,76.8,68.0,74,29.94,6.2,West,5.8,-,N/A,,Clear,280,2012-10-15 03:55:00
7:55 AM,84.9,62.4,47,29.95,6.2,WNW,11.5,-,N/A,,Clear,290,2012-10-15 04:55:00
8:55 AM,89.2,60.4,38,29.96,6.2,NW,12.7,-,N/A,,Clear,310,2012-10-15 05:55:00
9:55 AM,92.5,58.5,32,29.96,6.2,WNW,12.7,-,N/A,,Clear,300,2012-10-15 06:55:00
10:55 AM,94.5,57.2,29,29.93,6.2,NNW,17.3,23.0,N/A,,Partly Cloudy,330,2012-10-15 07:55:00
11:07 AM,95.0,57.2,28,29.93,6.2,NW,16.1,-,N/A,,Light Drizzle,320,2012-10-15 08:07:00
11:16 AM,95.0,57.2,28,29.93,6.2,NNW,12.7,20.7,N/A,,Clear,330,2012-10-15 08:16:00
11:55 AM,95.9,57.4,27,29.91,6.2,NW,16.1,-,N/A,,Partly Cloudy,320,2012-10-15 08:55:00
12:55 PM,96.8,52.9,23,29.88,6.2,NNW,18.4,27.6,N/A,,Partly Cloudy,330,2012-10-15 09:55:00
1:55 PM,96.3,57.2,27,29.88,6.2,NW,18.4,-,N/A,,Partly Cloudy,320,2012-10-15 10:55:00
2:55 PM,95.9,50.7,22,29.88,6.2,NW,17.3,24.2,N/A,,Clear,310,2012-10-15 11:55:00
3:55 PM,94.8,52.2,24,29.88,6.2,NW,19.6,-,N/A,,Clear,310,2012-10-15 12:55:00
4:55 PM,92.1,50.9,24,29.89,6.2,NW,17.3,-,N/A,,Clear,320,2012-10-15 13:55:00
5:55 PM,88.2,53.2,30,29.90,6.2,NW,11.5,-,N/A,,Clear,320,2012-10-15 14:55:00
6:55 PM,85.3,61.7,45,29.92,6.2,NNW,10.4,-,N/A,,Clear,330,2012-10-15 15:55:00
7:55 PM,83.7,66.2,56,29.93,6.2,NW,9.2,-,N/A,,Clear,320,2012-10-15 16:55:00
8:55 PM,81.9,67.1,61,29.93,6.2,NW,8.1,-,N/A,,Clear,320,2012-10-15 17:55:00
9:55 PM,81.0,67.5,63,29.93,6.2,NW,8.1,-,N/A,,Clear,310,2012-10-15 18:55:00
10:55 PM,79.3,67.6,67,29.92,6.2,WNW,9.2,-,N/A,,Clear,300,2012-10-15 19:55:00
11:55 PM,78.3,67.1,68,29.91,6.2,NW,8.1,-,N/A,,Clear,310,2012-10-15 20:55:00